Home   Weather   Tunisia   Tunis   Past weeks
Flag for Tunisia

Past Weather in Tunis, Tunisia — Yesterday and Last 2 Weeks

Currently: 63 °F. Passing clouds. (Weather station: Tunis-Carthage, Tunisia). See more current weather

Past Weather in Tunis — Graph

°F

Tunis Temperature Yesterday

Maximum temperature yesterday: 72 °F (at 1:30 pm)
Minimum temperature yesterday: 57 °F (at 12:30 am)
Average temperature yesterday: 62 °F

High & Low Weather Summary for the Past Weeks

 TemperatureHumidityPressure
High77 °F (Apr 2, 2:00 pm)100% (Mar 31, 5:30 am)30.48 "Hg (Mar 31, 5:30 am)
Low43 °F (Apr 9, 5:30 am)16% (Apr 6, 2:30 pm)29.77 "Hg (Apr 3, 5:00 pm)
Average61 °F64%30.12 "Hg
* Reported Mar 27 6:00 pm — Apr 11 6:30 pm, Tunis. Weather by CustomWeather, © 2021

Note: Actual official high and low records may vary slightly from our data, if they occured in-between our weather recording intervals... More about our weather records

Tunis Weather History for the Previous 24 Hours

Scroll right to see more
 ConditionsComfort  
Time TempWeatherWind HumidityBarometerVisibility
6:30 pm
Sun, Apr 11
64 °FPassing clouds.16 mph64%30.01 "HgN/A
6:00 pm64 °FPassing clouds.15 mph64%30.01 "HgN/A
5:30 pm64 °FPassing clouds.13 mph64%29.98 "HgN/A
5:00 pm66 °FPassing clouds.16 mph60%29.98 "HgN/A
4:30 pm66 °FPassing clouds.14 mph60%29.98 "HgN/A
4:00 pm68 °FPassing clouds.14 mph56%29.98 "HgN/A
3:30 pm70 °FPassing clouds.14 mph53%29.98 "HgN/A
3:00 pm70 °FPassing clouds.14 mph50%29.98 "HgN/A
2:30 pm70 °FPassing clouds.15 mph50%30.01 "HgN/A
2:00 pm70 °FPassing clouds.13 mph53%30.01 "HgN/A
1:30 pm70 °FPassing clouds.13 mph53%30.01 "HgN/A
1:00 pm72 °FPassing clouds.14 mph50%30.01 "HgN/A
12:30 pm72 °FPassing clouds.17 mph47%30.04 "HgN/A
12:00 pm72 °FPassing clouds.13 mph44%30.04 "HgN/A
11:30 am70 °FPassing clouds.13 mph50%30.04 "HgN/A
10:30 am68 °FPassing clouds.14 mph53%30.04 "HgN/A
10:00 am68 °FPassing clouds.14 mph53%30.04 "HgN/A
9:30 am68 °FPassing clouds.14 mph53%30.07 "HgN/A
9:00 am66 °FPassing clouds.14 mph60%30.04 "HgN/A
8:30 am64 °FPassing clouds.14 mph64%30.04 "HgN/A
8:00 am64 °FScattered clouds.13 mph64%30.04 "HgN/A
7:30 am61 °FOvercast.10 mph72%30.04 "HgN/A
7:00 am59 °FPassing clouds.8 mph82%30.04 "HgN/A
6:30 am59 °FPassing clouds.6 mph77%30.04 "HgN/A
6:00 am57 °FPassing clouds.6 mph77%30.04 "HgN/A
5:30 am57 °FClear.5 mph77%30.04 "Hg10 mi
5:00 am57 °FPassing clouds.7 mph77%30.04 "HgN/A
4:30 am59 °FClear.8 mph72%30.04 "Hg10 mi
4:00 am59 °FPassing clouds.7 mph72%30.04 "HgN/A
3:30 am59 °FPassing clouds.7 mph72%30.04 "HgN/A
3:00 am59 °FPassing clouds.3 mph72%30.07 "HgN/A
2:30 am59 °FPassing clouds.8 mph72%30.07 "HgN/A
1:00 am59 °FClear.13 mph72%30.09 "Hg10 mi
12:30 am59 °FClear.8 mph72%30.09 "Hg10 mi
12:00 am59 °FPassing clouds.8 mph72%30.09 "HgN/A
11:00 pm
Sat, Apr 10
61 °FPassing clouds.10 mph68%30.09 "HgN/A
10:30 pm59 °FPassing clouds.12 mph72%30.09 "HgN/A
10:00 pm59 °FPassing clouds.9 mph72%30.09 "HgN/A
9:30 pm61 °FPassing clouds.12 mph68%30.09 "HgN/A
9:00 pm61 °FPassing clouds.14 mph68%30.07 "HgN/A
8:30 pm61 °FPassing clouds.14 mph68%30.07 "HgN/A
8:00 pm61 °FPassing clouds.15 mph63%30.07 "HgN/A
Weather by CustomWeather, © 2021

See weather overview